Weather in Razdor

Russia / Astrakhan Oblast     46°04′29″N   48°13′13″E
temp.,
°C
wind,
m/s
gust,
m/s
humid.,
%
clouds,
%
prec.,
mm/h
press.,
hPa
HPBL,
m
19 september, sun
sun1901:00+12e33705 0.0 101941
04:00+12ene33675 0.0 102042
07:00+12ene366791 0.0 1020100
10:00+19ese7844100 0.0 10201217
13:00+21ese7837100 0.0 10191265
16:00+20ese783895 0.0 10181133
19:00+16e61159100 0.0 1018429
22:00+15e511635 0.0 1018356
20 september, mon
mon2001:00+16e613666 0.0 1016395
04:00+16e511705 0.0 1015304
07:00+16e5117493 0.0 1015281
10:00+23ese574296 0.0 1015671
13:00+25se654345 0.0 10141011
16:00+23se6653100 0.0 1014692
19:00+19ese2273100 0.0 101535
22:00+18e3372100 0.1 101673
21 september, tue
tue2101:00+17se2376100 0.9 101672
04:00+18nw2273100 1.1 101625
07:00+18nne347317 0.0 101578
10:00+23ne455283 0.0 1016502
13:00+25ese563728 0.0 10151138
16:00+24se6737100 0.0 1014894
19:00+18ese486071 0.0 1015193
22:00+16ese377799 0.0 1014122
22 september, wed
wed2201:00+17ese3777100 0.0 1014118
04:00+16ese338099 0.0 101339
07:00+17ese2279100 0.0 101317
10:00+23s344080 0.0 1014757
13:00+26se5431100 0.0 10141226
16:00+23ese6634100 0.0 1014607
19:00+19e4748100 0.0 1014207
22:00+18ne4756100 0.0 1014157
23 september, thu
thu2301:00+19s2455100 0.0 1014134
04:00+16ne61374100 1.2 1013366
07:00+17e51067100 0.0 1012356
10:00+20ese71056100 0.0 1013610
13:00+21se10116628 0.0 1013944
16:00+22ese810305 0.0 10121035
19:00+18e6115567 0.0 1012355
22:00+18e61358100 0.0 1011393